Weather History for Montrose, CO

Change the Weather History Date:

Sunday, December 8, 2013

  Actual Average Record
Temperature  
Mean Temperature 10 °F 28 °F  
Max Temperature 26 °F 39 °F 53 °F (2012)
Min Temperature -6 °F 17 °F -6 °F (2013)
Degree Days  
Heating Degree Days 55 37  
Month to date heating degree days 358 286  
Since 1 July heating degree days 1764 1707  
Cooling Degree Days 0 0  
Month to date cooling degree days 0 0  
Year to date cooling degree days 891 643  
Moisture  
Dew Point 13 °F    
Average Humidity 79    
Maximum Humidity 95    
Minimum Humidity 62    
Precipitation  
Precipitation 0.05 in 0.02 in 0.28 in (2008)
Month to date precipitation 0.09 0.18  
Year to date precipitation 10.53 10.83  
Sea Level Pressure  
Sea Level Pressure 29.88 in    
Wind  
Wind Speed 5 mph (West)    
Max Wind Speed 20 mph    
Max Gust Speed 23 mph    
Visibility 7 miles    
Events Fog , Snow    
T = Trace of Precipitation, MM = Missing Value Source: NWS Daily Summary

Daily Weather History Graph

Daily Weather History Graph

Search for Another Location

Airport:

Trip Planner

Search our weather history database for the weather conditions in past years. The results will help you decide how hot, cold, wet, or windy it might be!

Date:

Astronomy

Dec. 08, 2013 Rise Set
Actual Time 7:16 AM MST 4:50 PM MST
Civil Twilight 6:47 AM MST 5:20 PM MST
Nautical Twilight 6:14 AM MST 5:53 PM MST
Astronomical Twilight 5:41 AM MST 6:25 PM MST
Moon 11:42 AM MST (12/8) 11:39 PM MST (12/8)
Length of Visible Light 10h 32m
Length of Day
9h 33m
Waxing Crescent, 40% of the Moon is Illuminated
Dec 8
Waxing Crescent
Dec 9
First Quarter
Dec 17
Full
Dec 25
Last Quarter
Jan 1
New

Hourly Weather History & Observations

Time (MST) Temp. Windchill Dew Point Humidity Pressure Visibility Wind Dir Wind Speed Gust Speed Precip Events Conditions
12:03 AM 25.0 °F 19.3 °F 24.1 °F 96% 29.64 in 0.8 mi WSW 4.6 mph - 0.01 in Snow Light Snow
12:24 AM 26.1 °F 19.4 °F 23.0 °F 88% 29.63 in 1.2 mi SW 5.8 mph - 0.02 in Snow Light Snow
12:42 AM 26.1 °F 15.6 °F 24.1 °F 92% 29.63 in 0.8 mi WSW 11.5 mph - 0.03 in Snow Light Snow
12:53 AM 26.1 °F 16.8 °F 24.1 °F 92% 29.66 in 0.2 mi WSW 9.2 mph - 0.04 in Fog , Snow Heavy Snow
1:05 AM 26.1 °F 18.4 °F 24.1 °F 92% 29.62 in 1.0 mi SW 6.9 mph - 0.01 in Snow Light Snow
1:07 AM 26.1 °F 18.4 °F 24.1 °F 92% 29.62 in 1.2 mi SSW 6.9 mph - 0.01 in Snow Light Snow
1:11 AM 26.1 °F 19.4 °F 24.1 °F 92% 29.62 in 3.0 mi SSW 5.8 mph - 0.01 in Snow Light Snow
1:20 AM 26.1 °F 19.4 °F 21.9 °F 84% 29.62 in 9.0 mi South 5.8 mph - 0.01 in   Overcast
1:39 AM 24.1 °F 13.7 °F 21.0 °F 88% 29.65 in 2.0 mi WNW 10.4 mph 23.0 mph 0.01 in Snow Light Snow
1:48 AM 24.8 °F 17.9 °F 21.2 °F 86% 29.65 in 9.0 mi West 5.8 mph - 0.01 in   Overcast
1:53 AM 24.1 °F - 21.0 °F 88% 29.68 in 10.0 mi Calm Calm - 0.01 in   Overcast
2:53 AM 24.1 °F 17.0 °F 16.0 °F 71% 29.73 in 10.0 mi SW 5.8 mph - N/A   Scattered Clouds
3:53 AM 21.9 °F 13.4 °F 14.0 °F 72% 29.74 in 10.0 mi Variable 6.9 mph - N/A   Overcast
4:53 AM 21.0 °F 10.6 °F 16.0 °F 81% 29.75 in 4.0 mi SSW 9.2 mph - 0.00 in Snow Light Snow
5:53 AM 18.0 °F 11.1 °F 10.0 °F 71% 29.80 in 10.0 mi Variable 4.6 mph - 0.00 in   Partly Cloudy
6:53 AM 17.1 °F 8.7 °F 15.1 °F 92% 29.86 in 9.0 mi WNW 5.8 mph - N/A   Overcast
7:53 AM 18.0 °F 9.8 °F 15.1 °F 88% 29.92 in 8.0 mi NW 5.8 mph - N/A   Overcast
8:53 AM 18.0 °F 11.1 °F 15.1 °F 88% 29.96 in 10.0 mi North 4.6 mph - 0.00 in   Overcast
9:53 AM 19.0 °F 10.0 °F 15.1 °F 85% 30.00 in 10.0 mi East 6.9 mph - N/A   Overcast
10:53 AM 21.9 °F 17.2 °F 14.0 °F 72% 30.00 in 10.0 mi NNW 3.5 mph - N/A   Clear
11:24 AM 23.0 °F 15.8 °F 16.0 °F 74% 29.94 in 10.0 mi North 5.8 mph - N/A   Mostly Cloudy
11:50 AM 21.2 °F 12.6 °F 14.0 °F 74% 29.93 in 10.0 mi NNW 6.9 mph - N/A   Mostly Cloudy
11:53 AM 21.0 °F 13.4 °F 14.0 °F 74% 29.99 in 10.0 mi NW 5.8 mph - N/A   Mostly Cloudy
12:53 PM 21.0 °F 12.4 °F 10.9 °F 65% 29.98 in 10.0 mi NNW 6.9 mph - N/A   Mostly Cloudy
1:53 PM 21.0 °F 12.4 °F 10.9 °F 65% 29.98 in 5.0 mi NW 6.9 mph - 0.00 in Snow Light Snow
2:06 PM 19.9 °F 12.1 °F 10.9 °F 68% 29.91 in 9.0 mi NW 5.8 mph - 0.00 in   Overcast
2:53 PM 18.0 °F - 9.0 °F 68% 30.00 in 10.0 mi Calm Calm - 0.00 in   Mostly Cloudy
3:53 PM 21.0 °F 16.2 °F 10.9 °F 65% 30.00 in 10.0 mi NNE 3.5 mph - N/A   Scattered Clouds
4:53 PM 12.9 °F 6.9 °F 8.1 °F 81% 30.05 in 10.0 mi North 3.5 mph - N/A   Clear
5:53 PM 7.0 °F - 3.9 °F 87% 30.11 in 8.0 mi Calm Calm - N/A   Clear
6:53 PM 1.0 °F -10.3 °F -0.9 °F 91% 30.18 in 9.0 mi SSE 5.8 mph - N/A   Clear
7:53 PM 1.9 °F -12.9 °F -2.0 °F 83% 30.17 in 8.0 mi SSE 9.2 mph - N/A   Clear
8:53 PM 1.0 °F -14.9 °F -2.9 °F 83% 30.18 in 10.0 mi SSE 10.4 mph - N/A   Clear
9:53 PM -0.0 °F -9.9 °F -5.1 °F 79% 30.19 in 10.0 mi SE 4.6 mph - N/A   Clear
10:53 PM -2.9 °F -16.5 °F -6.0 °F 87% 30.20 in 8.0 mi SSE 6.9 mph - N/A   Clear
11:53 PM -6.0 °F -18.6 °F -9.0 °F 87% 30.25 in 9.0 mi East 5.8 mph - N/A   Clear